Weather History for KPVD - July, 2013

Change the Weather History Date:

Thursday, July 4, 2013

  Actual Average Record
Temperature  
Mean Temperature 82 °F 73 °F  
Max Temperature 90 °F 82 °F 99 °F (1949)
Min Temperature 74 °F 63 °F 51 °F (1986)
Degree Days  
Heating Degree Days 0 0  
Month to date heating degree days 0 0  
Since 1 June heating degree days 24 43  
Since 1 July heating degree days 0 0  
Cooling Degree Days 17 8  
Month to date cooling degree days 56 30  
Year to date cooling degree days 264 188  
Since 1 June cooling degree days 220 162  
Growing Degree Days 32 (Base 50)    
Moisture  
Dew Point 72 °F    
Average Humidity 75    
Maximum Humidity 93    
Minimum Humidity 56    
Precipitation  
Precipitation 0.00 in 0.09 in 2.68 in (2014)
Month to date precipitation 0.23 0.35  
Year to date precipitation 24.91 24.06  
Snow  
Snow 0.00 in 0.00 in 0.00 in (2002)
Month to date snowfall 0.0 0.0  
Since 1 June snowfall 0.0 0.0  
Since 1 July snowfall 0.0 0.0  
Snow Depth 0.00 in    
Sea Level Pressure  
Sea Level Pressure 30.19 in    
Wind  
Wind Speed 9 mph (SW)    
Max Wind Speed 17 mph    
Max Gust Speed 23 mph    
Visibility 10 miles    
Events      
T = Trace of Precipitation, MM = Missing Value Source: NWS Daily Summary

Daily Weather History Graph

Daily Weather History Graph

Search for Another Location

Airport or City:

Trip Planner

Search our weather history database for the weather conditions in past years. The results will help you decide how hot, cold, wet, or windy it might be!

Date:

Astronomy

Jul. 04, 2013 Rise Set
Actual Time 5:16 AM EDT 8:23 PM EDT
Civil Twilight 4:42 AM EDT 8:57 PM EDT
Nautical Twilight 3:59 AM EDT 9:40 PM EDT
Astronomical Twilight 3:07 AM EDT 10:32 PM EDT
Moon 2:32 AM EDT (7/4) 5:24 PM EDT (7/4)
Length of Visible Light 16h 14m
Length of Day
15h 06m
Waning Crescent, 11% of the Moon is Illuminated
Jul 4
Waning Crescent
Jul 8
New
Jul 15
First Quarter
Jul 22
Full
Jul 29
Last Quarter

Hourly Weather History & Observations

Time (EDT) Temp. Heat Index Dew Point Humidity Pressure Visibility Wind Dir Wind Speed Gust Speed Precip Events Conditions
12:51 AM 75.0 °F - 71.1 °F 87% 30.21 in 10.0 mi SW 6.9 mph - N/A   Mostly Cloudy
1:34 AM 75.2 °F - 71.6 °F 89% 30.21 in 10.0 mi SW 5.8 mph - N/A   Mostly Cloudy
1:51 AM 75.0 °F - 71.1 °F 87% 30.21 in 10.0 mi Calm Calm - N/A   Overcast
2:51 AM 75.0 °F - 72.0 °F 90% 30.20 in 10.0 mi SW 3.5 mph - N/A   Overcast
3:51 AM 73.9 °F - 72.0 °F 93% 30.20 in 10.0 mi South 3.5 mph - N/A   Overcast
4:51 AM 75.0 °F - 72.0 °F 90% 30.21 in 10.0 mi Variable 5.8 mph - N/A   Overcast
5:51 AM 75.9 °F - 72.0 °F 87% 30.22 in 10.0 mi West 5.8 mph - N/A   Mostly Cloudy
6:12 AM 77.0 °F - 71.6 °F 83% 30.22 in 10.0 mi WSW 6.9 mph - N/A   Mostly Cloudy
6:33 AM 77.0 °F - 71.6 °F 83% 30.22 in 10.0 mi SW 5.8 mph - N/A   Scattered Clouds
6:51 AM 78.1 °F - 72.0 °F 81% 30.22 in 10.0 mi SW 5.8 mph - N/A   Scattered Clouds
7:51 AM 80.1 °F 84.2 °F 73.0 °F 79% 30.23 in 10.0 mi WSW 9.2 mph - N/A   Scattered Clouds
8:51 AM 82.9 °F 88.8 °F 73.0 °F 72% 30.23 in 10.0 mi WSW 11.5 mph - N/A   Scattered Clouds
9:51 AM 84.0 °F 89.6 °F 72.0 °F 67% 30.22 in 10.0 mi West 10.4 mph - N/A   Partly Cloudy
10:51 AM 86.0 °F 93.0 °F 73.0 °F 65% 30.22 in 10.0 mi WSW 11.5 mph 20.7 mph N/A   Partly Cloudy
11:51 AM 88.0 °F 94.7 °F 72.0 °F 59% 30.20 in 10.0 mi West 9.2 mph 19.6 mph N/A   Partly Cloudy
12:51 PM 88.0 °F 94.7 °F 72.0 °F 59% 30.19 in 10.0 mi WSW 12.7 mph - N/A   Scattered Clouds
1:51 PM 90.0 °F 96.4 °F 71.1 °F 54% 30.17 in 10.0 mi West 16.1 mph - N/A   Scattered Clouds
2:51 PM 89.1 °F 96.0 °F 72.0 °F 57% 30.16 in 10.0 mi WSW 12.7 mph - N/A   Scattered Clouds
3:51 PM 89.1 °F 97.0 °F 73.0 °F 59% 30.15 in 10.0 mi SW 12.7 mph 20.7 mph N/A   Scattered Clouds
4:51 PM 89.1 °F 96.0 °F 72.0 °F 57% 30.14 in 10.0 mi SW 10.4 mph - N/A   Partly Cloudy
5:51 PM 88.0 °F 94.7 °F 72.0 °F 59% 30.13 in 10.0 mi SW 16.1 mph - N/A   Partly Cloudy
6:51 PM 84.9 °F 92.1 °F 73.9 °F 69% 30.14 in 10.0 mi SSW 11.5 mph - N/A   Partly Cloudy
7:51 PM 82.0 °F 87.4 °F 73.0 °F 74% 30.16 in 10.0 mi SW 10.4 mph 19.6 mph N/A   Partly Cloudy
8:51 PM 79.0 °F - 72.0 °F 79% 30.17 in 10.0 mi SW 6.9 mph - N/A   Partly Cloudy
9:51 PM 78.1 °F - 72.0 °F 81% 30.17 in 10.0 mi SSW 6.9 mph - N/A   Clear
10:51 PM 77.0 °F - 71.1 °F 82% 30.17 in 10.0 mi SSW 4.6 mph - N/A   Clear
11:51 PM 75.9 °F - 71.1 °F 85% 30.17 in 10.0 mi SW 6.9 mph - N/A   Clear